{"data":{"norad_id":66757,"epoch":"2026-05-25T03:32:45.415104Z","epoch_age_seconds":62455,"freshness":"FRESH","line1":"1 66757U 25276CV  26145.14774786  .00005359  00000+0  25038-3 0  9997","line2":"2 66757  97.4218 219.2898 0002695  67.0406 293.1113 15.20215452 26935","mean_motion":15.20215452,"eccentricity":0.0002695,"inclination_deg":97.4218,"raan_deg":219.2898,"arg_perigee_deg":67.0406,"mean_anomaly_deg":293.1113,"bstar":0.00025038,"rev_number":2693,"period_min":94.723415559652,"perigee_km":503.33512216628,"apogee_km":507.04523551568,"semimajor_km":6883.327178841,"source":"CELESTRAK","updated_at":"2026-05-25T13:38:06.453592Z"}}